Weather History for Beaufort, NC

Change the Weather History Date:

Tuesday, January 14, 2014

  Actual Average Record
Temperature  
Mean Temperature 55 °F -  
Max Temperature 64 °F 55 °F 71 °F (2013)
Min Temperature 46 °F 33 °F 19 °F (1969)
Degree Days  
Heating Degree Days 10    
Growing Degree Days 5 (Base 50)    
Moisture  
Dew Point 57 °F    
Average Humidity 95    
Maximum Humidity 100    
Minimum Humidity 84    
Precipitation  
Precipitation 1.25 in - - ()
Sea Level Pressure  
Sea Level Pressure 29.88 in    
Wind  
Wind Speed 9 mph (WSW)    
Max Wind Speed 23 mph    
Max Gust Speed 30 mph    
Visibility 6 miles    
Events Fog , Rain    
Averages and records for this station are not official NWS values.
T = Trace of Precipitation, MM = Missing Value Source: NWS Daily Summary

Daily Weather History Graph

Daily Weather History Graph

Search for Another Location

Airport:

Trip Planner

Search our weather history database for the weather conditions in past years. The results will help you decide how hot, cold, wet, or windy it might be!

Date:

Astronomy

Jan. 14, 2014 Rise Set
Actual Time 7:13 AM EST 5:17 PM EST
Civil Twilight 6:46 AM EST 5:45 PM EST
Nautical Twilight 6:15 AM EST 6:16 PM EST
Astronomical Twilight 5:44 AM EST 6:46 PM EST
Moon 4:20 PM EST (1/14) 5:47 AM EST (1/14)
Length of Visible Light 10h 59m
Length of Day
10h 04m
Waxing Gibbous, 98% of the Moon is Illuminated
Jan 14
Waxing Gibbous
Jan 15
Full
Jan 24
Last Quarter
Jan 30
New
Feb 6
First Quarter

Hourly Weather History & Observations

Time (EST) Temp. Windchill Dew Point Humidity Pressure Visibility Wind Dir Wind Speed Gust Speed Precip Events Conditions
12:58 AM 64.0 °F - 59.0 °F 84% 29.98 in 10.0 mi South 9.2 mph - 0.00 in   Overcast
1:58 AM 62.1 °F - 59.0 °F 90% 29.95 in 8.0 mi SSW 6.9 mph - 0.00 in   Partly Cloudy
2:58 AM 61.0 °F - 59.0 °F 93% 29.92 in 9.0 mi South 3.5 mph - N/A   Clear
3:58 AM 60.1 °F - 57.9 °F 93% 29.91 in 8.0 mi South 4.6 mph - N/A   Partly Cloudy
4:58 AM 61.0 °F - 59.0 °F 93% 29.89 in 8.0 mi Calm Calm - N/A   Overcast
5:31 AM 60.1 °F - 57.9 °F 93% 29.87 in 2.0 mi NNW 4.6 mph - 0.07 in Rain Heavy Rain
5:52 AM 60.8 °F - 59.0 °F 94% 29.88 in 3.0 mi WNW 8.1 mph - 0.13 in Rain Rain
5:53 AM 60.1 °F - 59.0 °F 96% 29.89 in 3.0 mi WNW 6.9 mph - 0.13 in Rain Light Rain
6:15 AM 60.1 °F - 59.0 °F 96% 29.87 in 7.0 mi Calm Calm - 0.00 in   Overcast
6:58 AM 60.1 °F - 59.0 °F 96% 29.86 in 5.0 mi SE 5.8 mph - 0.03 in Rain Heavy Rain
7:58 AM 61.0 °F - 60.1 °F 97% 29.85 in 2.0 mi SSE 9.2 mph - 0.12 in Rain Heavy Rain
8:29 AM 63.0 °F - 63.0 °F 100% 29.86 in 1.5 mi South 8.1 mph - 0.16 in Rain Heavy Rain
8:39 AM 63.0 °F - 62.1 °F 97% 29.87 in 2.5 mi South 11.5 mph - 0.19 in Rain Heavy Rain
8:58 AM 62.1 °F - 62.1 °F 100% 29.86 in 2.0 mi SSE 10.4 mph - 0.26 in Rain Heavy Rain
9:27 AM 62.1 °F - 61.0 °F 96% 29.88 in 1.0 mi West 15.0 mph - 0.16 in Rain Heavy Rain
9:30 AM 61.0 °F - 60.1 °F 97% 29.88 in 0.5 mi WSW 10.4 mph - 0.31 in Fog , Rain Heavy Rain
9:51 AM 62.1 °F - 61.0 °F 96% 29.86 in 1.0 mi WSW 17.3 mph 26.5 mph 0.52 in Rain Heavy Rain
9:54 AM 62.6 °F - 60.8 °F 94% 29.87 in 1.2 mi SW 23.0 mph 28.8 mph 0.54 in Rain Heavy Rain
9:58 AM 62.1 °F - 61.0 °F 96% 29.86 in 1.0 mi SW 17.3 mph 28.8 mph 0.59 in Rain Heavy Rain
10:05 AM 62.1 °F - 61.0 °F 96% 29.85 in 1.2 mi WSW 15.0 mph - 0.04 in Rain Heavy Rain
10:15 AM 62.1 °F - 62.1 °F 100% 29.84 in 2.5 mi WSW 11.5 mph - 0.06 in Rain Heavy Rain
10:22 AM 62.1 °F - 62.1 °F 100% 29.84 in 4.0 mi SW 10.4 mph - 0.06 in Rain Light Rain
10:58 AM 62.1 °F - 61.0 °F 96% 29.84 in 7.0 mi SW 10.4 mph - 0.08 in Rain Light Rain
11:58 AM 62.1 °F - 61.0 °F 96% 29.79 in 6.0 mi SSW 10.4 mph - 0.00 in   Mostly Cloudy
12:58 PM 62.1 °F - 60.1 °F 93% 29.79 in 8.0 mi SW 15.0 mph - 0.00 in Rain Light Rain
1:58 PM 61.0 °F - 59.0 °F 93% 29.78 in 7.0 mi WSW 18.4 mph 26.5 mph 0.01 in   Scattered Clouds
2:08 PM 60.1 °F - 59.0 °F 96% 29.77 in 8.0 mi WSW 17.3 mph 27.6 mph N/A   Mostly Cloudy
2:58 PM 59.0 °F - 57.9 °F 96% 29.78 in 7.0 mi WSW 17.3 mph 24.2 mph N/A   Overcast
3:19 PM 59.0 °F - 57.9 °F 96% 29.81 in 2.0 mi WSW 16.1 mph 26.5 mph 0.00 in Rain Light Rain
3:25 PM 59.0 °F - 57.9 °F 96% 29.81 in 1.5 mi WSW 18.4 mph 25.3 mph 0.01 in Rain Light Rain
3:29 PM 59.0 °F - 57.9 °F 96% 29.81 in 1.0 mi WSW 15.0 mph 26.5 mph 0.02 in Rain Heavy Rain
3:42 PM 59.0 °F - 57.9 °F 96% 29.82 in 2.0 mi WSW 17.3 mph 26.5 mph 0.03 in Rain Light Rain
3:53 PM 59.0 °F - 57.2 °F 94% 29.83 in 5.0 mi West 18.4 mph 29.9 mph 0.03 in Rain Light Rain
3:58 PM 59.0 °F - 57.9 °F 96% 29.83 in 9.0 mi WNW 17.3 mph 28.8 mph 0.03 in Rain Light Rain
4:03 PM 59.0 °F - 57.0 °F 93% 29.84 in 10.0 mi WNW 13.8 mph 24.2 mph 0.00 in   Overcast
4:58 PM 57.9 °F - 55.9 °F 93% 29.86 in 10.0 mi WNW 5.8 mph - 0.00 in   Overcast
5:46 PM 57.0 °F - 55.0 °F 93% 29.88 in 10.0 mi WNW 16.1 mph - N/A   Overcast
5:58 PM 57.0 °F - 54.0 °F 89% 29.89 in 10.0 mi WNW 10.4 mph - N/A   Overcast
6:06 PM 57.0 °F - 54.0 °F 89% 29.88 in 10.0 mi WNW 11.5 mph - N/A   Overcast
6:27 PM 55.9 °F - 54.0 °F 93% 29.89 in 10.0 mi NW 10.4 mph - N/A   Scattered Clouds
6:58 PM 54.0 °F - 52.0 °F 93% 29.91 in 10.0 mi WNW 11.5 mph - N/A   Scattered Clouds
7:58 PM 52.0 °F - 50.0 °F 93% 29.95 in 10.0 mi West 5.8 mph - N/A   Clear
8:30 PM 51.1 °F - 50.0 °F 96% 29.97 in 10.0 mi WNW 5.8 mph - N/A   Partly Cloudy
8:58 PM 51.1 °F - 50.0 °F 96% 29.99 in 10.0 mi NNW 5.8 mph - N/A   Clear
9:58 PM 50.0 °F - 48.9 °F 96% 29.99 in 10.0 mi North 3.5 mph - N/A   Clear
10:58 PM 46.0 °F 43.1 °F 45.0 °F 96% 29.99 in 10.0 mi NNW 5.8 mph - N/A   Clear
11:42 PM 46.0 °F - 46.0 °F 100% 30.00 in 7.0 mi Calm Calm - N/A   Scattered Clouds
11:53 PM 48.2 °F - 46.4 °F 93% 29.99 in 4.0 mi Calm Calm - N/A   Mostly Cloudy
11:58 PM 46.9 °F - 46.9 °F 100% 30.00 in 3.0 mi Calm Calm - N/A   Mostly Cloudy